Simultaneous Nadir Overpasses (SNOs) Predictions

Prediction of SNOs between LANDSAT-8 and METOP-A Satellite Orbit:

Table of predicted SNOs for the next 14.0 days since TLE Epoch: 10/31/2020
Index Date (LANDSAT-8) Time (LANDSAT-8) Lat,Lon (LANDSAT-8) SZA (LANDSAT-8 ) Date (METOP-A) Time (METOP-A) Lat,Lon (METOP-A) SZA (METOP-A ) Distance(km) Time Diff (sec)
1 11/01/2020 04:07:31 -81.45, -16.04 81.06 11/01/2020 04:06:23 -81.45, -16.21 81.11 2.95 68
2 11/01/2020 04:56:58 81.44, 151.38 98.92 11/01/2020 04:57:03 81.44, 151.53 98.95 2.59 5
3 11/03/2020 23:41:46 -81.44, 50.32 80.20 11/03/2020 23:40:45 -81.44, 50.52 80.20 3.25 61
4 11/04/2020 00:31:13 81.43,-142.29 99.78 11/04/2020 00:31:26 81.44,-142.15 99.81 2.71 13
5 11/06/2020 19:16:01 -81.44, 116.64 79.38 11/06/2020 19:15:08 -81.45, 116.82 79.37 3.21 53
6 11/06/2020 20:05:27 81.44, -75.61 100.65 11/06/2020 20:05:48 81.44, -75.46 100.68 2.58 21
7 11/09/2020 14:50:14 -81.45,-176.69 78.54 11/09/2020 14:49:30 -81.45,-176.89 78.59 3.27 44
8 11/09/2020 15:39:41 81.43, -9.36 101.43 11/09/2020 15:40:10 81.44, -9.20 101.46 2.84 29
9 11/12/2020 10:24:29 -81.44,-110.45 77.81 11/12/2020 10:23:53 -81.45,-110.63 77.84 3.10 36
